| time (UTC) | temp C | wind direction | speed KPH | gust KPH | rain 1hr cm | rain 24hr cm | rain mn cm | humidity % | barometer mb |
| 20260906065856 | 14 | 348 | 0.0 | 8.0 | 0.00 | 0.00 | 0.00 | 93 | 1024.5 |
| 20260906062901 | 12 | 44 | 4.8 | 11.3 | 0.00 | 0.00 | 0.00 | 93 | 1024.4 |
| 20260906061358 | 11 | 28 | 3.2 | 8.0 | 0.00 | 0.00 | 0.00 | 93 | 1024.3 |
| 20260906054403 | 1 | 223 | 0.0 | 0.0 | 0.00 | 0.00 | 0.00 | 92 | 1024.0 |
| 20260906052853 | 2 | 223 | 0.0 | 0.0 | 0.00 | 0.00 | 0.00 | 89 | 1023.8 |
| 20260906045901 | 3 | 223 | 0.0 | 0.0 | 0.00 | 0.00 | 0.00 | 86 | 1023.3 |
| 20260906042905 | 5 | 223 | 0.0 | 0.0 | 0.00 | 0.00 | 0.00 | 83 | 1023.0 |
| 20260906041359 | 6 | 223 | 0.0 | 0.0 | 0.00 | 0.00 | 0.00 | 81 | 1022.9 |
| 20260906034410 | 10 | 223 | 0.0 | 0.0 | 0.00 | 0.00 | 0.00 | 77 | 1022.6 |
| 20260906032854 | 12 | 223 | 0.0 | 0.0 | 0.00 | 0.00 | 0.00 | 74 | 1022.6 |
| 20260906025902 | 13 | 208 | 3.2 | 8.0 | 0.00 | 0.00 | 0.00 | 70 | 1022.6 |
| 20260906022908 | 14 | 211 | 4.8 | 9.7 | 0.00 | 0.00 | 0.00 | 67 | 1022.8 |
| 20260906021401 | 14 | 235 | 1.6 | 9.7 | 0.00 | 0.00 | 0.00 | 67 | 1022.9 |
| 20260906014840 | 14 | 235 | 1.6 | 9.7 | 0.00 | 0.00 | 0.00 | 67 | 1022.7 |
| 20260906011326 | 14 | 218 | 3.2 | 9.7 | 0.00 | 0.00 | 0.00 | 66 | 1022.7 |
| 20260906004323 | 15 | 223 | 0.0 | 9.7 | 0.00 | 0.00 | 0.00 | 68 | 1022.8 |
| 20260906002815 | 15 | 261 | 3.2 | 9.7 | 0.00 | 0.00 | 0.00 | 68 | 1022.9 |
| 20260905235820 | 15 | 244 | 3.2 | 11.3 | 0.00 | 0.00 | 0.00 | 68 | 1023.0 |
| 20260905232822 | 11 | 251 | 0.0 | 6.4 | 0.00 | 0.00 | 0.00 | 86 | 1023.0 |
| 20260905231316 | 8 | 214 | 0.0 | 3.2 | 0.00 | 0.00 | 0.00 | 93 | 1023.0 |
| 20260905224328 | 8 | 114 | 0.0 | 0.0 | 0.00 | 0.00 | 0.00 | 91 | 1022.9 |
| 20260905222807 | 9 | 114 | 0.0 | 0.0 | 0.00 | 0.00 | 0.00 | 86 | 1022.9 |
| 20260905215827 | 12 | 114 | 0.0 | 0.0 | 0.00 | 0.00 | 0.00 | 76 | 1022.7 |
| 20260905212826 | 16 | 208 | 0.0 | 6.4 | 0.00 | 0.00 | 0.00 | 67 | 1022.7 |
| 20260905211318 | 16 | 172 | 4.8 | 9.7 | 0.00 | 0.00 | 0.00 | 64 | 1022.6 |
| 20260905204324 | 17 | 217 | 3.2 | 16.1 | 0.00 | 0.00 | 0.00 | 57 | 1022.6 |
| 20260905202821 | 16 | 209 | 3.2 | 12.9 | 0.00 | 0.00 | 0.00 | 58 | 1022.8 |
| 20260905195829 | 16 | 227 | 1.6 | 9.7 | 0.00 | 0.00 | 0.00 | 60 | 1022.7 |
| 20260905194322 | 17 | 217 | 3.2 | 12.9 | 0.00 | 0.00 | 0.00 | 61 | 1022.6 |
| 20260905192815 | 17 | 227 | 4.8 | 11.3 | 0.00 | 0.00 | 0.00 | 59 | 1022.4 |
| 20260905185821 | 17 | 292 | 1.6 | 16.1 | 0.00 | 0.00 | 0.00 | 59 | 1022.1 |
| 20260905182824 | 17 | 202 | 1.6 | 9.7 | 0.00 | 0.00 | 0.00 | 64 | 1021.9 |
| 20260905181316 | 17 | 215 | 0.0 | 11.3 | 0.00 | 0.00 | 0.00 | 66 | 1021.4 |
| 20260905174326 | 16 | 230 | 0.0 | 6.4 | 0.00 | 0.00 | 0.00 | 85 | 1021.1 |
| 20260905172824 | 15 | 97 | 0.0 | 0.0 | 0.00 | 0.00 | 0.00 | 90 | 1021.1 |
| 20260905165827 | 17 | 97 | 0.0 | 0.0 | 0.00 | 0.00 | 0.00 | 87 | 1020.9 |
| 20260905164326 | 17 | 97 | 0.0 | 0.0 | 0.00 | 0.00 | 0.00 | 86 | 1020.8 |
| 20260905161324 | 18 | 95 | 0.0 | 0.0 | 0.00 | 0.00 | 0.00 | 81 | 1020.7 |
| 20260905155813 | 18 | 94 | 0.0 | 3.2 | 0.00 | 0.00 | 0.00 | 81 | 1020.5 |
| 20260905152819 | 19 | 82 | 0.0 | 8.0 | 0.00 | 0.00 | 0.00 | 80 | 1020.5 |
| 20260905145824 | 21 | 175 | 0.0 | 3.2 | 0.00 | 0.00 | 0.00 | 75 | 1020.5 |
| 20260905142829 | 21 | 163 | 0.0 | 3.2 | 0.00 | 0.00 | 0.00 | 75 | 1020.5 |
| 20260905141318 | 21 | 36 | 0.0 | 3.2 | 0.00 | 0.00 | 0.00 | 73 | 1020.5 |
| 20260905134325 | 21 | 302 | 0.0 | 8.0 | 0.00 | 0.00 | 0.00 | 76 | 1020.5 |
| 20260905132817 | 20 | 271 | 0.0 | 9.7 | 0.00 | 0.00 | 0.00 | 77 | 1020.8 |
| 20260905125823 | 21 | 33 | 0.0 | 8.0 | 0.00 | 0.00 | 0.00 | 75 | 1021.0 |
| 20260905122827 | 20 | 93 | 3.2 | 14.5 | 0.00 | 0.00 | 0.00 | 74 | 1021.2 |
| 20260905121317 | 21 | 25 | 3.2 | 9.7 | 0.00 | 0.00 | 0.00 | 71 | 1021.3 |
| 20260905115810 | 21 | 96 | 0.0 | 11.3 | 0.00 | 0.00 | 0.00 | 68 | 1021.6 |
| 20260905112824 | 21 | 127 | 0.0 | 8.0 | 0.00 | 0.00 | 0.00 | 48 | 1021.7 |
| 20260905105823 | 21 | 128 | 0.0 | 12.9 | 0.00 | 0.00 | 0.00 | 49 | 1021.8 |
| 20260905102823 | 20 | 150 | 8.0 | 19.3 | 0.00 | 0.00 | 0.00 | 52 | 1021.6 |
| 20260905101315 | 20 | 263 | 4.8 | 14.5 | 0.00 | 0.00 | 0.00 | 53 | 1021.4 |
| 20260905095806 | 20 | 184 | 4.8 | 16.1 | 0.00 | 0.00 | 0.00 | 54 | 1021.3 |
| 20260905092823 | 19 | 246 | 3.2 | 9.7 | 0.00 | 0.00 | 0.00 | 55 | 1021.1 |
| 20260905091317 | 19 | 148 | 1.6 | 8.0 | 0.00 | 0.00 | 0.00 | 58 | 1020.9 |
| 20260905084323 | 18 | 190 | 1.6 | 9.7 | 0.00 | 0.00 | 0.00 | 62 | 1020.8 |
| 20260905081324 | 18 | 157 | 4.8 | 9.7 | 0.00 | 0.00 | 0.00 | 61 | 1020.5 |
| 20260905075817 | 18 | 171 | 4.8 | 11.3 | 0.00 | 0.00 | 0.00 | 61 | 1020.3 |
| 20260905072826 | 18 | 211 | 4.8 | 14.5 | 0.00 | 0.00 | 0.00 | 63 | 1020.1 |
| 20260905071316 | 18 | 96 | 6.4 | 12.9 | 0.00 | 0.00 | 0.00 | 63 | 1019.9 |